Location: Cajon Junction
(34.3117°N, 117.4748°W)
Time: 05:50:49
(UTC+00:00)

Cosmos 1862 Rocket - Pass Details

Date: 18 April 2024
Orbit: 600 x 630 km, 82.5° (Epoch: 28 May)

Event Time Altitude Azimuth Distance (km) Brightness Sun altitude
Rises 12:35:36 0° 176° (S) 2,890 6.8 -8.5°
Reaches altitude 10° 12:37:51 10° 172° (S) 1,984 6.0 -8.0°
Maximum altitude 12:42:09 58° 94° (E) 726 4.3 -7.2°
Drops below altitude 10° 12:46:28 10° 15° (NNE) 1,979 6.6 -6.3°
Sets 12:48:42 0° 12° (NNE) 2,883 7.4 -5.9°
